Weather History for Litchfield, MN

Change the Weather History Date:

Sunday, December 18, 2011

  Actual Average Record
Temperature  
Mean Temperature 34 °F -  
Max Temperature 48 °F 25 °F 48 °F (2011)
Min Temperature 21 °F 8 °F -29 °F (1983)
Degree Days  
Heating Degree Days 30    
Moisture  
Dew Point 27 °F    
Average Humidity 79    
Maximum Humidity 100    
Minimum Humidity 53    
Precipitation  
Precipitation 0.00 in - - ()
Sea Level Pressure  
Sea Level Pressure 29.83 in    
Wind  
Wind Speed 2 mph (SSW)    
Max Wind Speed 9 mph    
Max Gust Speed -    
Visibility 10 miles    
Events      
Averages and records for this station are not official NWS values.
T = Trace of Precipitation, MM = Missing Value Source: NWS Daily Summary

Daily Weather History Graph

Daily Weather History Graph

Search for Another Location

Airport:

Trip Planner

Search our weather history database for the weather conditions in past years. The results will help you decide how hot, cold, wet, or windy it might be!

Date:

Astronomy

Dec. 18, 2011 Rise Set
Actual Time 7:51 AM CST 4:37 PM CST
Civil Twilight 7:17 AM CST 5:11 PM CST
Nautical Twilight 6:40 AM CST 5:48 PM CST
Astronomical Twilight 6:04 AM CST 6:24 PM CST
Moon 12:39 AM CST (12/18) 12:15 PM CST (12/18)
Length of Visible Light 9h 53m
Length of Day
8h 45m
Last Quarter, 42% of the Moon is Illuminated
Dec 18
Last Quarter
Dec 24
New
Jan 1
First Quarter
Jan 9
Full
Jan 16
Last Quarter

Hourly Weather History & Observations

Time (CST) Temp. Windchill Dew Point Humidity Pressure Visibility Wind Dir Wind Speed Gust Speed Precip Events Conditions
12:12 AM 21.2 °F - 19.4 °F 93% 30.09 in 10.0 mi Calm Calm - N/A   Clear
12:33 AM 23.0 °F - 19.4 °F 86% 30.08 in 10.0 mi Calm Calm - N/A   Clear
12:53 AM 23.0 °F - 19.4 °F 86% 30.06 in 10.0 mi Calm Calm - N/A   Clear
1:13 AM 21.2 °F - 19.4 °F 93% 30.06 in 10.0 mi Calm Calm - N/A   Clear
1:33 AM 21.2 °F - 19.4 °F 93% 30.05 in 10.0 mi Calm Calm - N/A   Clear
1:53 AM 23.0 °F - 21.2 °F 93% 30.04 in 10.0 mi Calm Calm - N/A   Clear
2:12 AM 23.0 °F - 21.2 °F 93% 30.03 in 10.0 mi Calm Calm - N/A   Clear
2:33 AM 21.2 °F - 21.2 °F 100% 30.03 in 10.0 mi Calm Calm - N/A   Clear
2:53 AM 23.0 °F - 21.2 °F 93% 30.01 in 10.0 mi Calm Calm - N/A   Clear
3:13 AM 24.8 °F - 21.2 °F 86% 30.00 in 10.0 mi Calm Calm - N/A   Clear
3:33 AM 24.8 °F - 21.2 °F 86% 29.99 in 10.0 mi Calm Calm - N/A   Clear
3:53 AM 24.8 °F - 21.2 °F 86% 29.97 in 10.0 mi Calm Calm - N/A   Clear
4:13 AM 24.8 °F - 21.2 °F 86% 29.96 in 10.0 mi Calm Calm - N/A   Clear
4:33 AM 24.8 °F - 21.2 °F 86% 29.96 in 10.0 mi Calm Calm - N/A   Clear
4:53 AM 24.8 °F - 21.2 °F 86% 29.95 in 10.0 mi Calm Calm - N/A   Clear
5:13 AM 24.8 °F 20.5 °F 21.2 °F 86% 29.94 in 10.0 mi South 3.5 mph - N/A   Clear
5:33 AM 24.8 °F 20.5 °F 23.0 °F 93% 29.93 in 10.0 mi South 3.5 mph - N/A   Clear
6:13 AM 24.8 °F 20.5 °F 21.2 °F 86% 29.91 in 10.0 mi SSE 3.5 mph - N/A   Clear
6:33 AM 24.8 °F 19.1 °F 21.2 °F 86% 29.90 in 10.0 mi South 4.6 mph - N/A   Clear
6:53 AM 24.8 °F 20.5 °F 23.0 °F 93% 29.89 in 10.0 mi South 3.5 mph - N/A   Clear
7:13 AM 26.6 °F 20.0 °F 23.0 °F 86% 29.87 in 10.0 mi SSE 5.8 mph - N/A   Clear
7:33 AM 26.6 °F 21.2 °F 23.0 °F 86% 29.86 in 10.0 mi SSE 4.6 mph - N/A   Clear
7:53 AM 24.8 °F 20.5 °F 23.0 °F 93% 29.86 in 10.0 mi South 3.5 mph - N/A   Clear
8:12 AM 26.6 °F - 23.0 °F 86% 29.85 in 10.0 mi Calm Calm - N/A   Clear
8:33 AM 26.6 °F 21.2 °F 24.8 °F 93% 29.84 in 10.0 mi South 4.6 mph - N/A   Clear
8:53 AM 28.4 °F 24.6 °F 24.8 °F 86% 29.83 in 10.0 mi South 3.5 mph - N/A   Clear
9:12 AM 28.4 °F 24.6 °F 24.8 °F 86% 29.83 in 10.0 mi SSE 3.5 mph - N/A   Clear
9:53 AM 32.0 °F 26.4 °F 26.6 °F 80% 29.82 in 10.0 mi South 5.8 mph - N/A   Clear
10:12 AM 33.8 °F 27.7 °F 28.4 °F 81% 29.81 in 10.0 mi SSW 6.9 mph - N/A   Clear
10:33 AM 33.8 °F 27.7 °F 28.4 °F 81% 29.80 in 10.0 mi SSW 6.9 mph - N/A   Clear
10:53 AM 35.6 °F 29.9 °F 28.4 °F 75% 29.80 in 10.0 mi SW 6.9 mph - N/A   Clear
11:13 AM 37.4 °F 32.8 °F 30.2 °F 75% 29.78 in 10.0 mi SW 5.8 mph - N/A   Clear
11:33 AM 37.4 °F 32.8 °F 30.2 °F 75% 29.77 in 10.0 mi SW 5.8 mph - N/A   Clear
11:52 AM 39.2 °F 35.9 °F 30.2 °F 70% 29.76 in 10.0 mi SW 4.6 mph - N/A   Clear
12:13 PM 39.2 °F 35.0 °F 30.2 °F 70% 29.74 in 10.0 mi SW 5.8 mph - N/A   Clear
12:33 PM 41.0 °F 37.1 °F 30.2 °F 65% 29.73 in 10.0 mi SW 5.8 mph - N/A   Clear
1:13 PM 44.6 °F 41.4 °F 30.2 °F 57% 29.71 in 10.0 mi SW 5.8 mph - N/A   Clear
1:53 PM 46.4 °F 42.4 °F 30.2 °F 53% 29.69 in 10.0 mi SW 8.1 mph - N/A   Clear
2:33 PM 48.2 °F - 32.0 °F 54% 29.68 in 10.0 mi SW 5.8 mph - N/A   Clear
2:53 PM 48.2 °F - 32.0 °F 54% 29.67 in 10.0 mi SW 4.6 mph - N/A   Clear
3:33 PM 48.2 °F - 33.8 °F 58% 29.67 in 10.0 mi SSW 4.6 mph - N/A   Clear
3:53 PM 46.4 °F 44.3 °F 33.8 °F 62% 29.67 in 10.0 mi SSW 4.6 mph - N/A   Clear
4:13 PM 44.6 °F 40.7 °F 32.0 °F 61% 29.67 in 10.0 mi SSW 6.9 mph - N/A   Clear
4:53 PM 42.8 °F 40.1 °F 32.0 °F 66% 29.67 in 10.0 mi SSW 4.6 mph - N/A   Clear
5:13 PM 41.0 °F 38.0 °F 32.0 °F 70% 29.67 in 10.0 mi SSW 4.6 mph - N/A   Clear
5:33 PM 39.2 °F 35.9 °F 33.8 °F 81% 29.66 in 10.0 mi SSW 4.6 mph - N/A   Clear
5:53 PM 39.2 °F 35.9 °F 33.8 °F 81% 29.67 in 10.0 mi SSW 4.6 mph - N/A   Clear
6:13 PM 39.2 °F 37.0 °F 33.8 °F 81% 29.67 in 10.0 mi SSW 3.5 mph - N/A   Clear
6:33 PM 39.2 °F 35.0 °F 33.8 °F 81% 29.67 in 10.0 mi SW 5.8 mph - N/A   Clear
6:53 PM 41.0 °F 37.1 °F 33.8 °F 76% 29.68 in 10.0 mi SW 5.8 mph - N/A   Clear
7:13 PM 42.8 °F 37.5 °F 32.0 °F 66% 29.68 in 10.0 mi WSW 9.2 mph - N/A   Clear
7:33 PM 41.0 °F 37.1 °F 32.0 °F 70% 29.68 in 10.0 mi SW 5.8 mph - N/A   Clear
8:13 PM 39.2 °F 37.0 °F 30.2 °F 70% 29.69 in 10.0 mi WSW 3.5 mph - N/A   Clear
8:33 PM 39.2 °F 35.0 °F 30.2 °F 70% 29.69 in 10.0 mi WSW 5.8 mph - N/A   Clear
8:53 PM 39.2 °F 34.2 °F 30.2 °F 70% 29.69 in 10.0 mi West 6.9 mph - N/A   Clear
9:13 PM 39.2 °F 37.0 °F 28.4 °F 65% 29.70 in 10.0 mi West 3.5 mph - N/A   Clear
9:32 PM 39.2 °F 35.0 °F 28.4 °F 65% 29.70 in 10.0 mi West 5.8 mph - N/A   Clear
9:53 PM 39.2 °F 33.6 °F 28.4 °F 65% 29.70 in 10.0 mi West 8.1 mph - N/A   Clear
10:13 PM 41.0 °F 35.2 °F 28.4 °F 61% 29.71 in 10.0 mi West 9.2 mph - N/A   Clear
10:33 PM 42.8 °F 36.6 °F 28.4 °F 57% 29.71 in 10.0 mi WNW 11.5 mph - N/A   Clear
10:53 PM 39.2 °F 32.0 °F 28.4 °F 65% 29.73 in 10.0 mi WNW 11.5 mph - N/A   Clear
11:13 PM 39.2 °F 32.5 °F 28.4 °F 65% 29.74 in 10.0 mi WNW 10.4 mph - N/A   Clear
11:33 PM 39.2 °F 33.6 °F 28.4 °F 65% 29.75 in 10.0 mi WNW 8.1 mph - N/A   Clear
11:53 PM 39.2 °F 33.0 °F 28.4 °F 65% 29.76 in 10.0 mi WNW 9.2 mph - N/A   Clear